Terminal Aerodrome Forecast
Issued by NWS

Home | Current Version | Previous Version | Text Only | Print | Product List | Glossary Off
Versions: 1 2 3 4 5 6 7 8 9 10 11 12 13 14 15 16 17 18 19 20 21 22

000
FTUS42 KMHX 291452 AAB
TAFOAJ
TAF AMD
KOAJ 291452Z 2915/3012 09006KT P6SM VCSH SCT010 BKN025
     FM291900 12007KT 5SM SHRA SCT015 OVC035
     FM300600 07003KT 5SM SHRA OVC007
      AMD LTD TO CLD VIS AND WIND=

USA.gov is the U.S. government's official web portal to all federal, state and local government web resources and services.